Weather History for Perry, IA

Change the Weather History Date:

Wednesday, April 4, 2012

  Actual Average Record
Temperature  
Mean Temperature 60 °F -  
Max Temperature 67 °F 52 °F 78 °F (1978)
Min Temperature 54 °F 30 °F 9 °F (1975)
Degree Days  
Heating Degree Days 4    
Growing Degree Days 10 (Base 50)    
Moisture  
Dew Point 43 °F    
Average Humidity 56    
Maximum Humidity 76    
Minimum Humidity 32    
Precipitation  
Precipitation 0.00 in - - ()
Sea Level Pressure  
Sea Level Pressure 29.90 in    
Wind  
Wind Speed 12 mph (ENE)    
Max Wind Speed 20 mph    
Max Gust Speed 24 mph    
Visibility 10 miles    
Events      
Averages and records for this station are not official NWS values.
T = Trace of Precipitation, MM = Missing Value Source: NWS Daily Summary

Daily Weather History Graph

Daily Weather History Graph

Search for Another Location

Airport:

Trip Planner

Search our weather history database for the weather conditions in past years. The results will help you decide how hot, cold, wet, or windy it might be!

Date:

Astronomy

Apr. 04, 2012 Rise Set
Actual Time 6:53 AM CDT 7:46 PM CDT
Civil Twilight 6:25 AM CDT 8:14 PM CDT
Nautical Twilight 5:51 AM CDT 8:48 PM CDT
Astronomical Twilight 5:16 AM CDT 9:23 PM CDT
Moon 5:39 PM CDT (4/4) 5:17 AM CDT (4/4)
Length of Visible Light 13h 49m
Length of Day
12h 52m
Waxing Gibbous, 94% of the Moon is Illuminated
Apr 4
Waxing Gibbous
Apr 6
Full
Apr 13
Last Quarter
Apr 21
New
Apr 29
First Quarter

Hourly Weather History & Observations

Time (CDT) Temp. Dew Point Humidity Pressure Visibility Wind Dir Wind Speed Gust Speed Precip Events Conditions
12:15 AM 56.1 °F 46.6 °F 70% 29.94 in 10.0 mi NE 11.5 mph 20.7 mph N/A   Overcast
12:55 AM 55.4 °F 45.9 °F 70% 29.94 in 10.0 mi NE 11.5 mph 18.4 mph N/A   Scattered Clouds
1:15 AM 55.2 °F 45.7 °F 70% 29.94 in 10.0 mi NE 9.2 mph - N/A   Clear
1:35 AM 54.7 °F 45.7 °F 72% 29.95 in 10.0 mi NE 9.2 mph - N/A   Mostly Cloudy
1:55 AM 55.2 °F 45.9 °F 71% 29.94 in 10.0 mi ENE 9.2 mph - N/A   Overcast
2:15 AM 55.6 °F 45.9 °F 70% 29.94 in 10.0 mi NE 10.4 mph - N/A   Overcast
2:35 AM 55.8 °F 46.0 °F 70% 29.94 in 10.0 mi ENE 6.9 mph - N/A   Overcast
2:55 AM 55.6 °F 45.9 °F 70% 29.93 in 10.0 mi ENE 10.4 mph - N/A   Overcast
3:15 AM 55.6 °F 45.7 °F 69% 29.93 in 10.0 mi ENE 9.2 mph - N/A   Overcast
3:35 AM 55.4 °F 45.5 °F 69% 29.92 in 10.0 mi NE 11.5 mph - N/A   Overcast
3:55 AM 55.4 °F 45.5 °F 69% 29.92 in 10.0 mi ENE 6.9 mph - N/A   Overcast
4:35 AM 55.4 °F 45.9 °F 70% 29.93 in 10.0 mi ENE 9.2 mph - N/A   Overcast
4:55 AM 55.0 °F 46.0 °F 72% 29.93 in 10.0 mi ENE 9.2 mph 16.1 mph N/A   Overcast
5:15 AM 55.0 °F 46.4 °F 73% 29.93 in 10.0 mi ENE 9.2 mph - N/A   Overcast
5:55 AM 54.9 °F 46.2 °F 73% 29.94 in 10.0 mi ENE 10.4 mph - N/A   Overcast
6:15 AM 54.5 °F 46.4 °F 74% 29.94 in 10.0 mi ENE 10.4 mph - N/A   Overcast
6:35 AM 54.5 °F 46.4 °F 74% 29.95 in 10.0 mi East 12.7 mph 17.3 mph N/A   Overcast
7:15 AM 54.0 °F 46.4 °F 76% 29.97 in 10.0 mi East 11.5 mph - N/A   Overcast
7:35 AM 54.0 °F 46.4 °F 76% 29.97 in 10.0 mi ENE 10.4 mph - N/A   Overcast
7:55 AM 54.0 °F 46.6 °F 76% 29.97 in 10.0 mi ENE 9.2 mph - N/A   Overcast
8:15 AM 54.0 °F 46.4 °F 76% 29.97 in 10.0 mi ENE 8.1 mph - N/A   Overcast
8:35 AM 54.1 °F 45.7 °F 73% 29.97 in 10.0 mi ENE 10.4 mph - N/A   Overcast
8:55 AM 54.5 °F 45.7 °F 72% 29.97 in 10.0 mi ENE 10.4 mph 16.1 mph N/A   Overcast
9:15 AM 54.7 °F 45.3 °F 71% 29.96 in 10.0 mi ENE 12.7 mph 17.3 mph N/A   Overcast
10:15 AM 56.7 °F 44.6 °F 64% 29.97 in 10.0 mi East 18.4 mph 23.0 mph N/A   Overcast
10:55 AM 58.3 °F 44.4 °F 60% 29.96 in 10.0 mi East 18.4 mph - N/A   Overcast
11:15 AM 59.4 °F 44.6 °F 58% 29.96 in 10.0 mi East 17.3 mph 24.2 mph N/A   Scattered Clouds
11:35 AM 59.5 °F 45.3 °F 59% 29.95 in 10.0 mi ENE 13.8 mph 20.7 mph N/A   Clear
11:55 AM 59.9 °F 45.1 °F 58% 29.95 in 10.0 mi East 18.4 mph 24.2 mph N/A   Clear
12:15 PM 60.8 °F 45.1 °F 56% 29.94 in 10.0 mi East 18.4 mph - N/A   Clear
12:35 PM 60.8 °F 45.1 °F 56% 29.93 in 10.0 mi East 16.1 mph 21.9 mph N/A   Clear
12:55 PM 61.2 °F 45.0 °F 55% 29.92 in 10.0 mi East 18.4 mph 24.2 mph N/A   Clear
1:15 PM 61.3 °F 45.5 °F 56% 29.90 in 10.0 mi East 18.4 mph - N/A   Clear
1:35 PM 61.9 °F 45.7 °F 55% 29.89 in 10.0 mi East 19.6 mph - N/A   Clear
1:55 PM 63.0 °F 45.7 °F 53% 29.88 in 10.0 mi East 18.4 mph 23.0 mph N/A   Clear
2:15 PM 64.0 °F 45.5 °F 51% 29.86 in 10.0 mi ENE 13.8 mph 23.0 mph N/A   Clear
2:35 PM 64.6 °F 45.1 °F 49% 29.85 in 10.0 mi ENE 17.3 mph 21.9 mph N/A   Clear
2:55 PM 65.1 °F 44.2 °F 47% 29.85 in 10.0 mi East 16.1 mph 23.0 mph N/A   Clear
3:15 PM 66.2 °F 43.9 °F 44% 29.84 in 10.0 mi East 17.3 mph 21.9 mph N/A   Clear
3:35 PM 66.7 °F 43.9 °F 44% 29.84 in 10.0 mi East 15.0 mph 18.4 mph N/A   Clear
3:55 PM 66.6 °F 42.1 °F 41% 29.83 in 10.0 mi East 17.3 mph 21.9 mph N/A   Clear
4:15 PM 66.9 °F 42.1 °F 40% 29.82 in 10.0 mi East 12.7 mph 19.6 mph N/A   Clear
4:35 PM 67.1 °F 40.8 °F 38% 29.82 in 10.0 mi East 15.0 mph - N/A   Clear
5:15 PM 66.4 °F 38.8 °F 36% 29.82 in 10.0 mi East 13.8 mph - N/A   Clear
5:35 PM 66.0 °F 35.6 °F 32% 29.82 in 10.0 mi ENE 11.5 mph 18.4 mph N/A   Clear
5:55 PM 65.5 °F 35.6 °F 33% 29.82 in 10.0 mi ENE 13.8 mph - N/A   Clear
6:15 PM 65.3 °F 35.4 °F 33% 29.82 in 10.0 mi ENE 13.8 mph - N/A   Clear
6:35 PM 64.6 °F 34.9 °F 33% 29.82 in 10.0 mi ENE 10.4 mph 16.1 mph N/A   Clear
6:55 PM 64.0 °F 34.0 °F 33% 29.83 in 10.0 mi ENE 11.5 mph 16.1 mph N/A   Clear
7:15 PM 63.5 °F 34.2 °F 33% 29.83 in 10.0 mi ENE 12.7 mph 17.3 mph N/A   Clear
7:35 PM 62.8 °F 34.2 °F 34% 29.82 in 10.0 mi ENE 10.4 mph - N/A   Clear
7:55 PM 62.1 °F 34.7 °F 36% 29.82 in 10.0 mi ENE 10.4 mph - N/A   Clear
8:35 PM 60.3 °F 36.7 °F 41% 29.83 in 10.0 mi ENE 13.8 mph 20.7 mph N/A   Clear
8:55 PM 59.7 °F 37.0 °F 43% 29.84 in 10.0 mi ENE 12.7 mph 20.7 mph N/A   Clear
9:15 PM 58.8 °F 37.2 °F 45% 29.85 in 10.0 mi ENE 11.5 mph - N/A   Scattered Clouds
9:35 PM 59.0 °F 37.8 °F 45% 29.86 in 10.0 mi ENE 11.5 mph - N/A   Mostly Cloudy
9:55 PM 58.8 °F 37.9 °F 46% 29.87 in 10.0 mi ENE 12.7 mph 16.1 mph N/A   Overcast
10:55 PM 58.1 °F 37.9 °F 47% 29.88 in 10.0 mi ENE 11.5 mph - N/A   Overcast
11:15 PM 57.6 °F 38.3 °F 49% 29.89 in 10.0 mi East 10.4 mph - N/A   Overcast
11:35 PM 57.2 °F 38.5 °F 50% 29.89 in 10.0 mi ENE 10.4 mph - N/A   Overcast
11:55 PM 57.2 °F 38.3 °F 49% 29.89 in 10.0 mi ENE 12.7 mph - N/A   Overcast